Location: Newark
(34.1333°N, 7.9667°W)
Time: 21:20:22
(UTC+00:00)

Vanguard 1 Rocket - Visible Passes

Search period start: 13 June 2021 00:00
Search period end: 23 June 2021 00:00
Orbit: 651 x 4225 km, 34.3° (Epoch: 13 June)

Date Brightness Start Highest point End Pass type
(mag) Time Alt. Az. Time Alt. Az. Time Alt. Az.
13 Jun 9.9 01:06:23 10° W 01:20:23 90° S 01:45:39 10° E visible
13 Jun 10.5 03:33:25 10° W 03:53:14 82° SSW 04:19:51 10° ESE visible
13 Jun 9.1 21:32:15 10° SSW 21:39:52 38° SE 21:53:38 10° ENE visible
13 Jun 9.4 23:55:14 10° WSW 00:06:36 83° SSE 00:28:59 10° E visible
14 Jun 10.2 02:21:09 10° W 02:37:54 89° S 03:04:34 10° ESE visible
14 Jun 10.7 04:49:13 10° WNW 05:10:59 65° SSW 05:35:58 10° SE visible
14 Jun 9.4 20:23:56 10° S 20:29:16 20° SE 20:37:03 10° E visible
14 Jun 9.0 22:44:39 10° SW 22:53:53 68° SSE 23:12:30 10° ENE visible
15 Jun 9.8 01:09:28 10° W 01:23:13 89° N 01:48:17 10° E visible
15 Jun 10.4 03:36:21 10° WNW 03:55:43 77° SSW 04:22:12 10° ESE visible
15 Jun 8.9 21:34:43 10° SW 21:42:13 47° SE 21:56:26 10° ENE visible
15 Jun 9.4 23:58:17 10° WSW 00:09:25 87° S 00:31:34 10° E visible
16 Jun 10.1 02:24:11 10° W 02:40:36 85° SSW 03:07:05 10° ESE visible
16 Jun 10.7 04:52:10 10° WNW 05:13:07 58° SSW 05:37:48 10° SE visible
16 Jun 9.1 20:25:44 10° S 20:31:27 26° SE 20:40:35 10° E visible
16 Jun 8.9 22:47:35 10° WSW 22:56:36 76° SSE 23:15:03 10° ENE visible
17 Jun 9.8 01:12:32 10° W 01:26:03 90° N 01:50:53 10° E visible
17 Jun 10.4 03:39:18 10° WNW 03:58:08 70° SSW 04:24:19 10° SE visible
17 Jun 8.6 21:37:25 10° SW 21:44:45 56° SSE 21:59:08 10° ENE visible
18 Jun 9.4 00:01:22 10° W 00:12:18 90° NW 00:34:10 10° E visible
18 Jun 10.1 02:27:11 10° W 02:43:14 80° SSW 03:09:27 10° ESE visible
18 Jun 8.7 20:27:58 10° SSW 20:33:47 34° SE 20:43:44 10° E visible
18 Jun 8.9 22:50:36 10° WSW 22:59:26 83° SSE 23:17:38 10° E visible
19 Jun 9.8 01:15:38 10° W 01:28:52 88° S 01:53:25 10° ESE visible
19 Jun 10.4 03:42:18 10° WNW 04:00:29 62° SSW 04:26:11 10° SE visible
19 Jun 8.5 21:40:16 10° SW 21:47:27 66° SSE 22:01:47 10° ENE visible
20 Jun 9.4 00:04:29 10° W 00:15:13 89° N 00:36:47 10° E visible
20 Jun 10.0 02:30:13 10° WNW 02:45:51 74° SSW 03:11:37 10° ESE visible
20 Jun 8.4 20:30:29 10° SW 20:36:18 43° SE 20:46:41 10° ENE visible
20 Jun 8.9 22:53:42 10° W 23:02:21 88° S 23:20:16 10° E visible
21 Jun 9.7 01:18:42 10° W 01:31:40 84° SSW 01:55:51 10° ESE visible
21 Jun 10.4 03:45:23 10° WNW 04:02:50 55° SSW 04:27:46 10° SE visible
21 Jun 8.4 21:43:15 10° WSW 21:50:17 76° SSE 22:04:27 10° E visible
22 Jun 9.3 00:07:37 10° W 00:18:09 90° S 00:39:23 10° E visible
22 Jun 10.0 02:33:15 10° WNW 02:48:24 67° SSW 03:13:34 10° SE visible
22 Jun 8.1 20:33:13 10° SW 20:38:59 53° SSE 20:49:31 10° ENE visible
22 Jun 8.9 22:56:50 10° W 23:05:20 89° N 23:22:55 10° E visible
